| time (UTC) | temp C | wind direction | speed KPH | gust KPH | rain 1hr cm | rain 24hr cm | rain mn cm | humidity % | barometer mb |
| 20260507093113 | 8 | 83 | 11.3 | 16.1 | 0.00 | 2.34 | 0.58 | 64 | 1011.8 |
| 20260507090113 | 8 | 44 | 8.0 | 12.9 | 0.00 | 2.34 | 0.58 | 66 | 1011.8 |
| 20260507083113 | 8 | 58 | 9.7 | 12.9 | 0.03 | 2.41 | 0.58 | 67 | 1011.8 |
| 20260507080113 | 8 | 37 | 11.3 | 14.5 | 0.03 | 2.41 | 0.58 | 70 | 1010.8 |
| 20260507070113 | 8 | 87 | 6.4 | 12.9 | 0.03 | 2.51 | 0.58 | 79 | 1010.8 |
| 20260507063113 | 8 | 46 | 11.3 | 17.7 | 0.03 | 2.74 | 0.58 | 79 | 1009.8 |
| 20260507060132 | 7 | 25 | 3.2 | 12.9 | 0.03 | 2.72 | 0.53 | 80 | 1009.8 |
| 20260507053113 | 7 | 105 | 9.7 | 14.5 | 0.03 | 3.12 | 0.53 | 81 | 1009.8 |
| 20260507050132 | 7 | 49 | 8.0 | 14.5 | 0.05 | 3.10 | 0.53 | 82 | 1008.8 |
| 20260507043113 | 7 | 74 | 8.0 | 12.9 | 0.10 | 3.53 | 0.53 | 82 | 1008.8 |
| 20260507033113 | 8 | 89 | 6.4 | 12.9 | 0.08 | 3.73 | 0.41 | 82 | 1008.8 |
| 20260507030113 | 8 | 79 | 9.7 | 17.7 | 0.13 | 3.71 | 0.38 | 82 | 1008.8 |
| 20260507023113 | 8 | 36 | 12.9 | 19.3 | 0.13 | 4.11 | 0.36 | 83 | 1007.8 |
| 20260507020112 | 9 | 79 | 6.4 | 12.9 | 0.08 | 4.01 | 0.25 | 83 | 1007.8 |
| 20260507013112 | 9 | 360 | 8.0 | 12.9 | 0.03 | 4.34 | 0.20 | 83 | 1007.7 |
| 20260507010113 | 9 | 71 | 9.7 | 16.1 | 0.08 | 4.34 | 0.20 | 83 | 1006.7 |
| 20260507003112 | 9 | 48 | 4.8 | 12.9 | 0.08 | 4.67 | 0.18 | 83 | 1006.7 |
| 20260507000112 | 9 | 52 | 8.0 | 12.9 | 0.05 | 4.62 | 0.13 | 83 | 1006.7 |
| 20260506230112 | 9 | 22 | 12.9 | 17.7 | 0.08 | 4.83 | 0.08 | 83 | 1006.7 |
| 20260506223112 | 9 | 62 | 9.7 | 14.5 | 0.08 | 4.90 | 0.03 | 83 | 1006.7 |
| 20260506220112 | 10 | 2 | 8.0 | 12.9 | 0.13 | 4.88 | 0.00 | 83 | 1005.7 |
| 20260506213112 | 10 | 24 | 9.7 | 14.5 | 0.33 | 4.83 | 4.83 | 82 | 1005.7 |
| 20260506210112 | 10 | 70 | 6.4 | 9.7 | 0.46 | 4.72 | 4.72 | 83 | 1005.7 |
| 20260506203112 | 11 | 12 | 4.8 | 8.0 | 0.36 | 4.50 | 4.50 | 83 | 1005.7 |
| 20260506200112 | 11 | 339 | 6.4 | 9.7 | 0.15 | 4.29 | 4.29 | 83 | 1005.6 |
| 20260506193112 | 11 | 9 | 4.8 | 8.0 | 0.08 | 4.17 | 4.17 | 83 | 1004.6 |
| 20260506190113 | 11 | 50 | 6.4 | 12.9 | 0.10 | 4.11 | 4.11 | 83 | 1004.6 |
| 20260506183113 | 11 | 94 | 9.7 | 12.9 | 0.18 | 4.09 | 4.09 | 83 | 1004.6 |
| 20260506173113 | 11 | 346 | 0.0 | 6.4 | 0.03 | 3.91 | 3.91 | 82 | 1004.6 |
| 20260506170132 | 11 | 30 | 0.0 | 6.4 | 0.03 | 3.89 | 3.89 | 81 | 1004.6 |
| 20260506163113 | 11 | 27 | 6.4 | 8.0 | 0.15 | 3.89 | 3.89 | 80 | 1004.6 |
| 20260506153113 | 11 | 106 | 6.4 | 9.7 | 0.13 | 3.73 | 3.73 | 79 | 1004.6 |
| 20260506150113 | 11 | 48 | 8.0 | 14.5 | 0.20 | 3.66 | 3.66 | 78 | 1004.6 |
| 20260506143113 | 11 | 52 | 6.4 | 9.7 | 0.20 | 3.61 | 3.61 | 79 | 1004.6 |
| 20260506140113 | 11 | 62 | 6.4 | 20.9 | 0.03 | 3.45 | 3.45 | 78 | 1004.6 |
| 20260506133113 | 11 | 59 | 6.4 | 12.9 | 0.03 | 3.40 | 3.40 | 77 | 1004.6 |
| 20260506130113 | 11 | 82 | 9.7 | 12.9 | 0.08 | 3.40 | 3.40 | 78 | 1004.6 |
| 20260506123113 | 11 | 56 | 6.4 | 12.9 | 0.10 | 3.38 | 3.38 | 80 | 1003.6 |
| 20260506120113 | 10 | 360 | 6.4 | 11.3 | 0.13 | 3.35 | 3.35 | 81 | 1004.7 |
| 20260506113113 | 10 | 1 | 8.0 | 14.5 | 0.13 | 3.28 | 3.28 | 80 | 1004.7 |
| 20260506103113 | 10 | 45 | 6.4 | 9.7 | 0.05 | 3.15 | 3.15 | 78 | 1004.7 |